Time,TemperatureF,DewpointF,PressureIn,WindDirection,WindDirectionDegrees,WindSpeedMPH,WindSpeedGustMPH,Humidity,HourlyPrecipIn,Conditions,Clouds,dailyrainin,SoftwareType,DateUTC
2013-07-06 08:22:00,70.0,66.0,30.06,South,170,7.0,-999.0,88,-99.99,,,-99.99,,2013-07-06 13:22:00,
2013-07-06 08:33:00,70.0,66.0,30.06,South,180,7.0,-999.0,88,-99.99,,,-99.99,,2013-07-06 13:33:00,
2013-07-06 08:43:00,72.0,66.0,30.06,SSE,160,7.0,-999.0,83,-99.99,,,-99.99,,2013-07-06 13:43:00,
2013-07-06 08:52:00,72.0,66.0,30.06,SSE,160,8.0,-999.0,83,-99.99,,,-99.99,,2013-07-06 13:52:00,
2013-07-06 09:02:00,73.0,66.0,30.06,SSW,200,6.0,-999.0,78,-99.99,,,-99.99,,2013-07-06 14:02:00,
2013-07-06 09:11:00,73.0,66.0,30.06,SSW,200,8.0,-999.0,78,-99.99,,,-99.99,,2013-07-06 14:11:00,
2013-07-06 09:22:00,75.0,66.0,30.06,SSW,200,7.0,-999.0,73,-99.99,,,-99.99,,2013-07-06 14:22:00,
2013-07-06 09:34:00,75.0,66.0,30.05,South,190,9.0,-999.0,73,-99.99,,,-99.99,,2013-07-06 14:34:00,
2013-07-06 09:42:00,75.0,66.0,30.05,South,190,8.0,-999.0,73,-99.99,,,-99.99,,2013-07-06 14:42:00,
2013-07-06 09:53:00,75.0,66.0,30.05,South,180,7.0,-999.0,73,-99.99,,,-99.99,,2013-07-06 14:53:00,
2013-07-06 10:02:00,75.0,66.0,30.05,South,180,8.0,-999.0,73,-99.99,,,-99.99,,2013-07-06 15:02:00,
2013-07-06 10:12:00,77.0,66.0,30.05,South,180,7.0,-999.0,69,-99.99,,,-99.99,,2013-07-06 15:12:00,
2013-07-06 10:22:00,77.0,66.0,30.05,South,180,9.0,-999.0,69,-99.99,,,-99.99,,2013-07-06 15:22:00,
2013-07-06 10:33:00,79.0,66.0,30.04,South,190,7.0,-999.0,65,-99.99,,,-99.99,,2013-07-06 15:33:00,
2013-07-06 10:43:00,79.0,66.0,30.04,SSW,200,8.0,-999.0,65,-99.99,,,-99.99,,2013-07-06 15:43:00,
2013-07-06 10:53:00,81.0,66.0,30.04,SSW,210,8.0,-999.0,61,-99.99,,,-99.99,,2013-07-06 15:53:00,
2013-07-06 11:07:00,81.0,64.0,30.04,SSW,210,7.0,-999.0,57,-99.99,,,-99.99,,2013-07-06 16:07:00,
2013-07-06 11:15:00,81.0,64.0,30.04,SSW,210,9.0,-999.0,57,-99.99,,,-99.99,,2013-07-06 16:15:00,
2013-07-06 11:43:00,82.0,64.0,30.04,South,170,7.0,-999.0,54,-99.99,,,-99.99,,2013-07-06 16:43:00,
2013-07-06 12:00:00,82.0,64.0,30.03,SW,220,8.0,-999.0,54,-99.99,,,-99.99,,2013-07-06 17:00:00,
2013-07-06 12:12:00,84.0,66.0,30.03,South,170,8.0,-999.0,54,-99.99,,,-99.99,,2013-07-06 17:12:00,
2013-07-06 12:31:00,84.0,66.0,30.03,SSW,210,9.0,-999.0,54,-99.99,,,-99.99,,2013-07-06 17:31:00,
2013-07-06 12:42:00,84.0,66.0,30.03,South,180,8.0,-999.0,54,-99.99,,,-99.99,,2013-07-06 17:42:00,
2013-07-06 12:51:00,84.0,66.0,30.02,SSW,210,7.0,-999.0,54,-99.99,,,-99.99,,2013-07-06 17:51:00,
2013-07-06 13:00:00,84.0,66.0,30.02,South,180,9.0,-999.0,54,-99.99,,,-99.99,,2013-07-06 18:00:00,
2013-07-06 13:10:00,84.0,66.0,30.02,South,190,9.0,-999.0,54,-99.99,,,-99.99,,2013-07-06 18:10:00,
2013-07-06 13:33:00,86.0,66.0,30.02,South,180,7.0,-999.0,51,-99.99,,,-99.99,,2013-07-06 18:33:00,
2013-07-06 14:01:00,86.0,64.0,30.01,SW,230,5.0,-999.0,48,-99.99,,,-99.99,,2013-07-06 19:01:00,
2013-07-06 14:21:00,88.0,64.0,30.00,South,190,5.0,-999.0,45,-99.99,,,-99.99,,2013-07-06 19:21:00,
2013-07-06 14:30:00,88.0,64.0,29.99,South,190,10.0,-999.0,45,-99.99,,,-99.99,,2013-07-06 19:30:00,
2013-07-06 14:42:00,86.0,64.0,29.99,SW,220,7.0,-999.0,48,-99.99,,,-99.99,,2013-07-06 19:42:00,
2013-07-06 14:57:00,86.0,63.0,29.99,SSW,200,6.0,-999.0,45,-99.99,,,-99.99,,2013-07-06 19:57:00,
2013-07-06 15:21:00,86.0,64.0,29.99,SSW,210,6.0,-999.0,48,-99.99,,,-99.99,,2013-07-06 20:21:00,
2013-07-06 15:30:00,86.0,64.0,29.99,SW,230,6.0,-999.0,48,-99.99,,,-99.99,,2013-07-06 20:30:00,
2013-07-06 15:44:00,86.0,64.0,29.99,WSW,240,7.0,-999.0,48,-99.99,,,-99.99,,2013-07-06 20:44:00,
2013-07-06 16:00:00,84.0,64.0,29.99,SSW,210,6.0,-999.0,51,-99.99,,,-99.99,,2013-07-06 21:00:00,
2013-07-06 16:12:00,84.0,64.0,29.98,SSE,150,6.0,-999.0,51,-99.99,,,-99.99,,2013-07-06 21:12:00,
2013-07-06 16:32:00,84.0,64.0,29.99,ENE,60,7.0,-999.0,51,-99.99,,,-99.99,,2013-07-06 21:32:00,
2013-07-06 16:43:00,81.0,66.0,29.99,East,90,7.0,-999.0,61,-99.99,,,-99.99,,2013-07-06 21:43:00,
2013-07-06 17:22:00,86.0,64.0,29.97,East,90,5.0,-999.0,48,-99.99,,,-99.99,,2013-07-06 22:22:00,
2013-07-06 17:32:00,84.0,64.0,29.97,East,80,7.0,-999.0,51,-99.99,,,-99.99,,2013-07-06 22:32:00,
2013-07-06 17:43:00,82.0,64.0,29.97,ESE,110,5.0,-999.0,54,-99.99,,,-99.99,,2013-07-06 22:43:00,
2013-07-06 17:52:00,84.0,66.0,29.97,ESE,120,6.0,-999.0,54,-99.99,,,-99.99,,2013-07-06 22:52:00,
2013-07-06 18:09:00,82.0,66.0,29.97,ESE,110,8.0,-999.0,58,-99.99,,,-99.99,,2013-07-06 23:09:00,
2013-07-06 18:21:00,82.0,66.0,29.97,ESE,120,7.0,-999.0,58,-99.99,,,-99.99,,2013-07-06 23:21:00,
2013-07-06 18:32:00,82.0,66.0,29.97,ESE,120,8.0,-999.0,58,-99.99,,,-99.99,,2013-07-06 23:32:00,
2013-07-06 19:14:00,82.0,66.0,29.97,SE,140,10.0,-999.0,58,-99.99,,,-99.99,,2013-07-07 00:14:00,
2013-07-06 19:23:00,82.0,66.0,29.97,SE,140,10.0,-999.0,58,-99.99,,,-99.99,,2013-07-07 00:23:00,
2013-07-06 19:31:00,82.0,66.0,29.98,SSE,150,13.0,-999.0,58,-99.99,,,-99.99,,2013-07-07 00:31:00,
2013-07-06 19:42:00,82.0,66.0,29.98,SSE,160,14.0,17.0,58,-99.99,,,-99.99,,2013-07-07 00:42:00,
2013-07-06 19:59:00,81.0,66.0,29.98,SSE,150,13.0,18.0,61,-99.99,,,-99.99,,2013-07-07 00:59:00,
2013-07-06 20:08:00,81.0,66.0,29.98,SSE,150,10.0,-999.0,61,-99.99,,,-99.99,,2013-07-07 01:08:00,
2013-07-06 20:21:00,79.0,64.0,29.99,SSE,150,12.0,-999.0,61,-99.99,,,-99.99,,2013-07-07 01:21:00,
2013-07-06 20:31:00,79.0,63.0,29.99,SSE,150,12.0,17.0,57,-99.99,,,-99.99,,2013-07-07 01:31:00,
2013-07-06 21:11:00,75.0,63.0,30.00,SSE,160,7.0,-999.0,64,-99.99,,,-99.99,,2013-07-07 02:11:00,
2013-07-06 21:19:00,73.0,63.0,30.00,SSE,150,7.0,-999.0,68,-99.99,,,-99.99,,2013-07-07 02:19:00,
2013-07-06 21:30:00,73.0,63.0,30.00,SSE,160,6.0,-999.0,68,-99.99,,,-99.99,,2013-07-07 02:30:00,
2013-07-06 21:48:00,72.0,63.0,30.00,SE,140,6.0,-999.0,73,-99.99,,,-99.99,,2013-07-07 02:48:00,
2013-07-06 22:10:00,72.0,63.0,30.01,SSE,150,6.0,-999.0,73,-99.99,,,-99.99,,2013-07-07 03:10:00,
2013-07-06 22:29:00,70.0,63.0,30.01,SSE,150,8.0,-999.0,77,-99.99,,,-99.99,,2013-07-07 03:29:00,
2013-07-06 22:38:00,70.0,63.0,30.02,SSE,150,8.0,-999.0,77,-99.99,,,-99.99,,2013-07-07 03:38:00,
2013-07-06 23:02:00,72.0,63.0,30.02,South,170,8.0,-999.0,73,-99.99,,,-99.99,,2013-07-07 04:02:00,
2013-07-06 23:11:00,72.0,63.0,30.02,SSE,160,7.0,-999.0,73,-99.99,,,-99.99,,2013-07-07 04:11:00,
2013-07-06 23:21:00,72.0,63.0,30.02,SSE,160,6.0,-999.0,73,-99.99,,,-99.99,,2013-07-07 04:21:00,
2013-07-06 23:31:00,70.0,63.0,30.02,SSE,160,6.0,-999.0,77,-99.99,,,-99.99,,2013-07-07 04:31:00,
2013-07-06 23:41:00,70.0,63.0,30.02,South,170,6.0,-999.0,77,-99.99,,,-99.99,,2013-07-07 04:41:00,
2013-07-06 23:51:00,70.0,63.0,30.02,SSE,160,6.0,-999.0,77,-99.99,,,-99.99,,2013-07-07 04:51:00,